Hourly Data Report for September 28, 2022

SANIRAJAK AIRPORT
NUNAVUT
Current Station Operator: NAVCAN

68°46'33.000" N
81°14'33.000" W
9.10 m
2402354
71293
YUX

Download Data

Hourly Data (September 2022)
Hourly Data Report for September 28, 2022
TIME
LST
Temp Definition
°C
Dew Point Definition
°C
Rel Hum Definition
%
Precip. Amount Definition
mm

Wind Dir Definition
10's deg

Wind Spd Definition
km/h
Visibility Definition
km
Stn Press Definition
kPa
Hmdx Definition


Wind Chill Definition


Weather Definition


00:00 LegendMM LegendMM LegendMM 558.8 23 4 16.1 LegendMM     LegendNANA
01:00 -1.7 -1.8 99 548.6 20 5 16.1 101.49   -4 LegendNANA
02:00 -1.6 -1.6 100 LegendMM 23 9 16.1 101.49   -5 LegendNANA
03:00 -1.8 -1.8 100 610.6   0 16.1 101.48     LegendNANA
04:00 LegendMM LegendMM LegendMM LegendMM 27 8 16.1 LegendMM     LegendNANA
05:00 -3.1 -3.1 100 375.9 29 8 16.1 101.43   -6 LegendNANA
06:00 -3.2 -3.2 100 609.6 33 4 16.1 101.41   -5 LegendNANA
07:00 LegendMM LegendMM LegendMM LegendMM   0 16.1 LegendMM     LegendNANA
08:00 -1.7 -1.7 100 172.7 19 17 16.1 101.34   -7 LegendNANA
09:00 -1.2 -2.8 89 LegendMM 18 11 16.1 101.31   -5 LegendNANA
10:00 -0.4 -3.4 80 609.6 19 8 16.1 101.25   -3 LegendNANA
11:00 0.2 -3.9 74 LegendMM 19 15 16.1 101.17     LegendNANA
12:00 0.4 -3.3 76 609.6 18 24 16.1 101.10     LegendNANA
13:00 0.5 -3.4 75 LegendMM 19 26 16.1 101.03     LegendNANA
14:00 0.6 -2.4 81 610.6 18 30 16.1 100.96     LegendNANA
15:00 0.6 -2.3 81 LegendMM 17 32 16.1 100.86     LegendNANA
16:00 0.7 -2.6 79 LegendMM 18 39 16.1 100.81     LegendNANA
17:00 0.2 -2.4 83 609.6 17 34 16.1 100.71     LegendNANA
18:00 0.2 -2.1 84 LegendMM 17 43 16.1 100.63     LegendNANA
19:00 0.1 0.0 99 608.5 17 41 16.1 100.55     LegendNANA
20:00 0.5 -0.6 92 LegendMM 16 41 16.1 100.44     LegendNANA
21:00 0.8 -1.1 87 609.6 16 41 16.1 100.35     LegendNANA
22:00 0.6 0.6 100 LegendMM 15 43 8.1 100.23     Rain, Fog
23:00 LegendMM LegendMM LegendMM 607.0 15 48 4.0 LegendMM     Snow

Notes on Data Quality.

Legend

  • E = Estimated
  • M = Missing
  • NA = Not Available*
  • [empty] = Indicates an unobserved value
Date modified: